owner,sensor,date,latitude,longitude,sea_surface_height_above_sea_level,qcFlag 
TCOON,ioos:station:TCOON:013:1,2019-01-01T00:24:00Z,27.4847,-97.3181,0.797,1111122 
TCOON,ioos:station:TCOON:013:1,2019-01-01T01:24:00Z,27.4847,-97.3181,0.797,1111122 
TCOON,ioos:station:TCOON:013:1,2019-01-01T02:24:00Z,27.4847,-97.3181,0.8,1111122 
TCOON,ioos:station:TCOON:013:1,2019-01-01T03:24:00Z,27.4847,-97.3181,0.805,1111122 
TCOON,ioos:station:TCOON:013:1,2019-01-01T04:24:00Z,27.4847,-97.3181,0.806,1111122 
TCOON,ioos:station:TCOON:013:1,2019-01-01T05:24:00Z,27.4847,-97.3181,0.807,1111122 
TCOON,ioos:station:TCOON:013:1,2019-01-01T06:24:00Z,27.4847,-97.3181,0.807,1111122 
TCOON,ioos:station:TCOON:013:1,2019-01-01T07:24:00Z,27.4847,-97.3181,0.804,1111122 
TCOON,ioos:station:TCOON:013:1,2019-01-01T08:24:00Z,27.4847,-97.3181,0.802,1111122 
TCOON,ioos:station:TCOON:013:1,2019-01-01T09:24:00Z,27.4847,-97.3181,0.797,1111122 
TCOON,ioos:station:TCOON:013:1,2019-01-01T10:24:00Z,27.4847,-97.3181,0.792,1111122 
TCOON,ioos:station:TCOON:013:1,2019-01-01T11:24:00Z,27.4847,-97.3181,0.786,1111122 
TCOON,ioos:station:TCOON:013:1,2019-01-01T12:24:00Z,27.4847,-97.3181,0.781,1111122 
TCOON,ioos:station:TCOON:013:1,2019-01-01T13:24:00Z,27.4847,-97.3181,0.771,1111122 
TCOON,ioos:station:TCOON:013:1,2019-01-01T14:24:00Z,27.4847,-97.3181,0.765,1111122 
TCOON,ioos:station:TCOON:013:1,2019-01-01T15:24:00Z,27.4847,-97.3181,0.757,1111122 
TCOON,ioos:station:TCOON:013:1,2019-01-01T16:24:00Z,27.4847,-97.3181,0.746,1111122 
TCOON,ioos:station:TCOON:013:1,2019-01-01T17:24:00Z,27.4847,-97.3181,0.741,1111122 
TCOON,ioos:station:TCOON:013:1,2019-01-01T18:24:00Z,27.4847,-97.3181,0.735,1111122 
TCOON,ioos:station:TCOON:013:1,2019-01-01T19:24:00Z,27.4847,-97.3181,0.729,1111122 
TCOON,ioos:station:TCOON:013:1,2019-01-01T20:24:00Z,27.4847,-97.3181,0.722,1111122 
TCOON,ioos:station:TCOON:013:1,2019-01-01T21:24:00Z,27.4847,-97.3181,0.714,1111122 
TCOON,ioos:station:TCOON:013:1,2019-01-01T22:24:00Z,27.4847,-97.3181,0.708,1111122 
TCOON,ioos:station:TCOON:013:1,2019-01-01T23:24:00Z,27.4847,-97.3181,0.713,1111122 
TCOON,ioos:station:TCOON:013:1,2019-01-02T00:24:00Z,27.4847,-97.3181,0.71,1111122 
TCOON,ioos:station:TCOON:013:1,2019-01-02T01:24:00Z,27.4847,-97.3181,0.714,1111122 
TCOON,ioos:station:TCOON:013:1,2019-01-02T02:24:00Z,27.4847,-97.3181,0.727,1111122 
TCOON,ioos:station:TCOON:013:1,2019-01-02T03:24:00Z,27.4847,-97.3181,0.729,1111122 
TCOON,ioos:station:TCOON:013:1,2019-01-02T04:24:00Z,27.4847,-97.3181,0.734,1111122 
TCOON,ioos:station:TCOON:013:1,2019-01-02T05:24:00Z,27.4847,-97.3181,0.736,1111122 
TCOON,ioos:station:TCOON:013:1,2019-01-02T06:24:00Z,27.4847,-97.3181,0.743,1111122 
TCOON,ioos:station:TCOON:013:1,2019-01-02T07:24:00Z,27.4847,-97.3181,0.75,1111122 
TCOON,ioos:station:TCOON:013:1,2019-01-02T08:24:00Z,27.4847,-97.3181,0.76,1111122 
TCOON,ioos:station:TCOON:013:1,2019-01-02T09:24:00Z,27.4847,-97.3181,0.768,1111122 
TCOON,ioos:station:TCOON:013:1,2019-01-02T10:24:00Z,27.4847,-97.3181,0.779,1111122 
TCOON,ioos:station:TCOON:013:1,2019-01-02T11:24:00Z,27.4847,-97.3181,0.77,1111122 
TCOON,ioos:station:TCOON:013:1,2019-01-02T12:24:00Z,27.4847,-97.3181,0.787,1111122 
TCOON,ioos:station:TCOON:013:1,2019-01-02T13:24:00Z,27.4847,-97.3181,0.794,1111122 
TCOON,ioos:station:TCOON:013:1,2019-01-02T14:24:00Z,27.4847,-97.3181,0.795,1111122 
TCOON,ioos:station:TCOON:013:1,2019-01-02T15:24:00Z,27.4847,-97.3181,0.797,1111122 
TCOON,ioos:station:TCOON:013:1,2019-01-02T16:24:00Z,27.4847,-97.3181,0.794,1111122 
TCOON,ioos:station:TCOON:013:1,2019-01-02T17:24:00Z,27.4847,-97.3181,0.78,1111122 
TCOON,ioos:station:TCOON:013:1,2019-01-02T18:24:00Z,27.4847,-97.3181,0.777,1111122 
TCOON,ioos:station:TCOON:013:1,2019-01-02T19:24:00Z,27.4847,-97.3181,0.772,1111122 
TCOON,ioos:station:TCOON:013:1,2019-01-02T20:24:00Z,27.4847,-97.3181,0.765,1111122 
TCOON,ioos:station:TCOON:013:1,2019-01-02T21:24:00Z,27.4847,-97.3181,0.764,1111122 
TCOON,ioos:station:TCOON:013:1,2019-01-02T22:24:00Z,27.4847,-97.3181,0.76,1111122 
TCOON,ioos:station:TCOON:013:1,2019-01-02T23:24:00Z,27.4847,-97.3181,0.764,1111122 
TCOON,ioos:station:TCOON:013:1,2019-01-03T00:24:00Z,27.4847,-97.3181,0.78,1111122 
TCOON,ioos:station:TCOON:013:1,2019-01-03T01:24:00Z,27.4847,-97.3181,0.779,1111122 
TCOON,ioos:station:TCOON:013:1,2019-01-03T02:24:00Z,27.4847,-97.3181,0.784,1111122 
TCOON,ioos:station:TCOON:013:1,2019-01-03T03:24:00Z,27.4847,-97.3181,0.791,1111122 
TCOON,ioos:station:TCOON:013:1,2019-01-03T04:24:00Z,27.4847,-97.3181,0.799,1111122 
TCOON,ioos:station:TCOON:013:1,2019-01-03T05:24:00Z,27.4847,-97.3181,0.797,1111122 
TCOON,ioos:station:TCOON:013:1,2019-01-03T06:24:00Z,27.4847,-97.3181,0.803,1111122 
TCOON,ioos:station:TCOON:013:1,2019-01-03T07:24:00Z,27.4847,-97.3181,0.811,1111122 
TCOON,ioos:station:TCOON:013:1,2019-01-03T08:24:00Z,27.4847,-97.3181,0.822,1111122 
TCOON,ioos:station:TCOON:013:1,2019-01-03T09:24:00Z,27.4847,-97.3181,0.828,1111122 
TCOON,ioos:station:TCOON:013:1,2019-01-03T10:24:00Z,27.4847,-97.3181,0.834,1111122 
TCOON,ioos:station:TCOON:013:1,2019-01-03T11:24:00Z,27.4847,-97.3181,0.849,1111122 
TCOON,ioos:station:TCOON:013:1,2019-01-03T12:24:00Z,27.4847,-97.3181,0.846,1111122 
TCOON,ioos:station:TCOON:013:1,2019-01-03T13:24:00Z,27.4847,-97.3181,0.849,1111122 
TCOON,ioos:station:TCOON:013:1,2019-01-03T14:24:00Z,27.4847,-97.3181,0.844,1111122 
TCOON,ioos:station:TCOON:013:1,2019-01-03T15:24:00Z,27.4847,-97.3181,0.837,1111122 
TCOON,ioos:station:TCOON:013:1,2019-01-03T16:24:00Z,27.4847,-97.3181,0.834,1111122 
TCOON,ioos:station:TCOON:013:1,2019-01-03T17:24:00Z,27.4847,-97.3181,0.821,1111122 
TCOON,ioos:station:TCOON:013:1,2019-01-03T18:24:00Z,27.4847,-97.3181,0.808,1111122 
TCOON,ioos:station:TCOON:013:1,2019-01-03T19:30:00Z,27.4847,-97.3181,0.795,1111122 
TCOON,ioos:station:TCOON:013:1,2019-01-03T20:24:00Z,27.4847,-97.3181,0.794,1111122 
TCOON,ioos:station:TCOON:013:1,2019-01-03T21:24:00Z,27.4847,-97.3181,0.782,1111122 
TCOON,ioos:station:TCOON:013:1,2019-01-03T22:24:00Z,27.4847,-97.3181,0.772,1111122 
TCOON,ioos:station:TCOON:013:1,2019-01-03T23:24:00Z,27.4847,-97.3181,0.758,1111122 
TCOON,ioos:station:TCOON:013:1,2019-01-04T00:24:00Z,27.4847,-97.3181,0.757,1111122 
TCOON,ioos:station:TCOON:013:1,2019-01-04T01:24:00Z,27.4847,-97.3181,0.757,1111122 
TCOON,ioos:station:TCOON:013:1,2019-01-04T02:24:00Z,27.4847,-97.3181,0.758,1111122 
TCOON,ioos:station:TCOON:013:1,2019-01-04T03:24:00Z,27.4847,-97.3181,0.762,1111122 
TCOON,ioos:station:TCOON:013:1,2019-01-04T04:24:00Z,27.4847,-97.3181,0.768,1111122 
TCOON,ioos:station:TCOON:013:1,2019-01-04T05:24:00Z,27.4847,-97.3181,0.775,1111122 
TCOON,ioos:station:TCOON:013:1,2019-01-04T06:24:00Z,27.4847,-97.3181,0.779,1111122 
TCOON,ioos:station:TCOON:013:1,2019-01-04T07:24:00Z,27.4847,-97.3181,0.783,1111122 
TCOON,ioos:station:TCOON:013:1,2019-01-04T08:24:00Z,27.4847,-97.3181,0.787,1111122 
TCOON,ioos:station:TCOON:013:1,2019-01-04T09:24:00Z,27.4847,-97.3181,0.788,1111122 
TCOON,ioos:station:TCOON:013:1,2019-01-04T10:24:00Z,27.4847,-97.3181,0.79,1111122 
TCOON,ioos:station:TCOON:013:1,2019-01-04T11:24:00Z,27.4847,-97.3181,0.79,1111122 
TCOON,ioos:station:TCOON:013:1,2019-01-04T12:24:00Z,27.4847,-97.3181,0.789,1111122 
TCOON,ioos:station:TCOON:013:1,2019-01-04T13:24:00Z,27.4847,-97.3181,0.787,1111122 
TCOON,ioos:station:TCOON:013:1,2019-01-04T14:24:00Z,27.4847,-97.3181,0.786,1111122 
TCOON,ioos:station:TCOON:013:1,2019-01-04T15:24:00Z,27.4847,-97.3181,0.784,1111122 
TCOON,ioos:station:TCOON:013:1,2019-01-04T16:24:00Z,27.4847,-97.3181,0.777,1111122 
TCOON,ioos:station:TCOON:013:1,2019-01-04T17:24:00Z,27.4847,-97.3181,0.774,1111122 
TCOON,ioos:station:TCOON:013:1,2019-01-04T18:24:00Z,27.4847,-97.3181,0.771,1111122 
TCOON,ioos:station:TCOON:013:1,2019-01-04T19:24:00Z,27.4847,-97.3181,0.762,1111122 
TCOON,ioos:station:TCOON:013:1,2019-01-04T20:24:00Z,27.4847,-97.3181,0.753,1111122 
TCOON,ioos:station:TCOON:013:1,2019-01-04T21:24:00Z,27.4847,-97.3181,0.744,1111122 
TCOON,ioos:station:TCOON:013:1,2019-01-04T22:24:00Z,27.4847,-97.3181,0.738,1111122 
TCOON,ioos:station:TCOON:013:1,2019-01-04T23:24:00Z,27.4847,-97.3181,0.733,1111122 
TCOON,ioos:station:TCOON:013:1,2019-01-05T00:24:00Z,27.4847,-97.3181,0.731,1111122 
TCOON,ioos:station:TCOON:013:1,2019-01-05T01:24:00Z,27.4847,-97.3181,0.726,1111122 
TCOON,ioos:station:TCOON:013:1,2019-01-05T02:24:00Z,27.4847,-97.3181,0.724,1111122 
TCOON,ioos:station:TCOON:013:1,2019-01-05T03:24:00Z,27.4847,-97.3181,0.72,1111122 
TCOON,ioos:station:TCOON:013:1,2019-01-05T04:24:00Z,27.4847,-97.3181,0.718,1111122 
TCOON,ioos:station:TCOON:013:1,2019-01-05T05:24:00Z,27.4847,-97.3181,0.714,1111122 
TCOON,ioos:station:TCOON:013:1,2019-01-05T06:24:00Z,27.4847,-97.3181,0.714,1111122 
TCOON,ioos:station:TCOON:013:1,2019-01-05T07:24:00Z,27.4847,-97.3181,0.715,1111122 
TCOON,ioos:station:TCOON:013:1,2019-01-05T08:24:00Z,27.4847,-97.3181,0.715,1111122 
TCOON,ioos:station:TCOON:013:1,2019-01-05T09:24:00Z,27.4847,-97.3181,0.713,1111122 
TCOON,ioos:station:TCOON:013:1,2019-01-05T10:24:00Z,27.4847,-97.3181,0.71,1111122 
TCOON,ioos:station:TCOON:013:1,2019-01-05T11:24:00Z,27.4847,-97.3181,0.709,1111122 
TCOON,ioos:station:TCOON:013:1,2019-01-05T12:24:00Z,27.4847,-97.3181,0.706,1111122 
TCOON,ioos:station:TCOON:013:1,2019-01-05T13:24:00Z,27.4847,-97.3181,0.702,1111122 
TCOON,ioos:station:TCOON:013:1,2019-01-05T14:24:00Z,27.4847,-97.3181,0.7,1111122 
TCOON,ioos:station:TCOON:013:1,2019-01-05T15:24:00Z,27.4847,-97.3181,0.7,1111122 
TCOON,ioos:station:TCOON:013:1,2019-01-05T16:24:00Z,27.4847,-97.3181,0.697,1111122 
TCOON,ioos:station:TCOON:013:1,2019-01-05T17:24:00Z,27.4847,-97.3181,0.694,1111122 
TCOON,ioos:station:TCOON:013:1,2019-01-05T18:24:00Z,27.4847,-97.3181,0.689,1111122 
TCOON,ioos:station:TCOON:013:1,2019-01-05T19:24:00Z,27.4847,-97.3181,0.684,1111122 
TCOON,ioos:station:TCOON:013:1,2019-01-05T20:24:00Z,27.4847,-97.3181,0.68,1111122 
TCOON,ioos:station:TCOON:013:1,2019-01-05T21:24:00Z,27.4847,-97.3181,0.674,1111122 
TCOON,ioos:station:TCOON:013:1,2019-01-05T22:24:00Z,27.4847,-97.3181,0.669,1111122 
TCOON,ioos:station:TCOON:013:1,2019-01-05T23:24:00Z,27.4847,-97.3181,0.664,1111122 
TCOON,ioos:station:TCOON:013:1,2019-01-06T00:24:00Z,27.4847,-97.3181,0.659,1111122 
TCOON,ioos:station:TCOON:013:1,2019-01-06T01:24:00Z,27.4847,-97.3181,0.655,1111122 
TCOON,ioos:station:TCOON:013:1,2019-01-06T03:24:00Z,27.4847,-97.3181,0.651,1111122 
TCOON,ioos:station:TCOON:013:1,2019-01-06T04:30:00Z,27.4847,-97.3181,0.655,1111122 
TCOON,ioos:station:TCOON:013:1,2019-01-06T05:30:00Z,27.4847,-97.3181,0.651,1111122 
TCOON,ioos:station:TCOON:013:1,2019-01-06T06:30:00Z,27.4847,-97.3181,0.652,1111122 
TCOON,ioos:station:TCOON:013:1,2019-01-06T07:30:00Z,27.4847,-97.3181,0.655,1111122 
TCOON,ioos:station:TCOON:013:1,2019-01-06T08:30:00Z,27.4847,-97.3181,0.657,1111122 
TCOON,ioos:station:TCOON:013:1,2019-01-06T09:30:00Z,27.4847,-97.3181,0.661,1111122 
TCOON,ioos:station:TCOON:013:1,2019-01-06T10:30:00Z,27.4847,-97.3181,0.663,1111122 
TCOON,ioos:station:TCOON:013:1,2019-01-06T11:30:00Z,27.4847,-97.3181,0.665,1111122 
TCOON,ioos:station:TCOON:013:1,2019-01-06T12:30:00Z,27.4847,-97.3181,0.665,1111122 
TCOON,ioos:station:TCOON:013:1,2019-01-06T13:30:00Z,27.4847,-97.3181,0.67,1111122 
TCOON,ioos:station:TCOON:013:1,2019-01-06T14:30:00Z,27.4847,-97.3181,0.668,1111122 
TCOON,ioos:station:TCOON:013:1,2019-01-06T15:30:00Z,27.4847,-97.3181,0.666,1111122 
TCOON,ioos:station:TCOON:013:1,2019-01-06T16:24:00Z,27.4847,-97.3181,0.663,1111122 
TCOON,ioos:station:TCOON:013:1,2019-01-06T17:24:00Z,27.4847,-97.3181,0.661,1111122 
TCOON,ioos:station:TCOON:013:1,2019-01-06T18:24:00Z,27.4847,-97.3181,0.659,1111122 
TCOON,ioos:station:TCOON:013:1,2019-01-06T19:24:00Z,27.4847,-97.3181,0.658,1111122 
TCOON,ioos:station:TCOON:013:1,2019-01-06T20:24:00Z,27.4847,-97.3181,0.654,1111122 
TCOON,ioos:station:TCOON:013:1,2019-01-06T21:24:00Z,27.4847,-97.3181,0.647,1111122 
TCOON,ioos:station:TCOON:013:1,2019-01-06T22:24:00Z,27.4847,-97.3181,0.639,1111122 
TCOON,ioos:station:TCOON:013:1,2019-01-06T23:24:00Z,27.4847,-97.3181,0.638,1111122 
TCOON,ioos:station:TCOON:013:1,2019-01-07T00:24:00Z,27.4847,-97.3181,0.636,1111122 
TCOON,ioos:station:TCOON:013:1,2019-01-07T01:24:00Z,27.4847,-97.3181,0.631,1111122 
TCOON,ioos:station:TCOON:013:1,2019-01-07T02:24:00Z,27.4847,-97.3181,0.628,1111122 
TCOON,ioos:station:TCOON:013:1,2019-01-07T03:24:00Z,27.4847,-97.3181,0.628,1111122 
TCOON,ioos:station:TCOON:013:1,2019-01-07T04:24:00Z,27.4847,-97.3181,0.63,1111122 
TCOON,ioos:station:TCOON:013:1,2019-01-07T05:24:00Z,27.4847,-97.3181,0.634,1111122 
TCOON,ioos:station:TCOON:013:1,2019-01-07T06:24:00Z,27.4847,-97.3181,0.64,1111122 
TCOON,ioos:station:TCOON:013:1,2019-01-07T08:54:00Z,27.4847,-97.3181,0.652,1111122 
TCOON,ioos:station:TCOON:013:1,2019-01-07T09:30:00Z,27.4847,-97.3181,0.658,1111122 
TCOON,ioos:station:TCOON:013:1,2019-01-07T10:30:00Z,27.4847,-97.3181,0.662,1111122 
TCOON,ioos:station:TCOON:013:1,2019-01-07T11:30:00Z,27.4847,-97.3181,0.668,1111122 
TCOON,ioos:station:TCOON:013:1,2019-01-07T12:30:00Z,27.4847,-97.3181,0.673,1111122 
TCOON,ioos:station:TCOON:013:1,2019-01-07T13:30:00Z,27.4847,-97.3181,0.679,1111122 
TCOON,ioos:station:TCOON:013:1,2019-01-07T14:30:00Z,27.4847,-97.3181,0.678,1111122 
TCOON,ioos:station:TCOON:013:1,2019-01-07T15:24:00Z,27.4847,-97.3181,0.675,1111122 
TCOON,ioos:station:TCOON:013:1,2019-01-07T16:24:00Z,27.4847,-97.3181,0.668,1111122 
TCOON,ioos:station:TCOON:013:1,2019-01-07T17:24:00Z,27.4847,-97.3181,0.665,1111122 
TCOON,ioos:station:TCOON:013:1,2019-01-07T18:24:00Z,27.4847,-97.3181,0.658,1111122 
TCOON,ioos:station:TCOON:013:1,2019-01-07T19:24:00Z,27.4847,-97.3181,0.651,1111122 
TCOON,ioos:station:TCOON:013:1,2019-01-07T20:24:00Z,27.4847,-97.3181,0.646,1111122 
TCOON,ioos:station:TCOON:013:1,2019-01-07T21:24:00Z,27.4847,-97.3181,0.644,1111122 
TCOON,ioos:station:TCOON:013:1,2019-01-07T22:24:00Z,27.4847,-97.3181,0.642,1111122 
TCOON,ioos:station:TCOON:013:1,2019-01-08T00:24:00Z,27.4847,-97.3181,0.634,1111122 
TCOON,ioos:station:TCOON:013:1,2019-01-08T01:24:00Z,27.4847,-97.3181,0.633,1111122 
TCOON,ioos:station:TCOON:013:1,2019-01-08T02:24:00Z,27.4847,-97.3181,0.631,1111122 
TCOON,ioos:station:TCOON:013:1,2019-01-08T03:24:00Z,27.4847,-97.3181,0.633,1111122 
TCOON,ioos:station:TCOON:013:1,2019-01-08T04:24:00Z,27.4847,-97.3181,0.641,1111122 
TCOON,ioos:station:TCOON:013:1,2019-01-08T05:24:00Z,27.4847,-97.3181,0.639,1111122 
TCOON,ioos:station:TCOON:013:1,2019-01-08T06:24:00Z,27.4847,-97.3181,0.644,1111122 
TCOON,ioos:station:TCOON:013:1,2019-01-08T07:24:00Z,27.4847,-97.3181,0.649,1111122 
TCOON,ioos:station:TCOON:013:1,2019-01-08T08:24:00Z,27.4847,-97.3181,0.656,1111122 
TCOON,ioos:station:TCOON:013:1,2019-01-08T09:24:00Z,27.4847,-97.3181,0.663,1111122 
TCOON,ioos:station:TCOON:013:1,2019-01-08T10:24:00Z,27.4847,-97.3181,0.666,1111122 
TCOON,ioos:station:TCOON:013:1,2019-01-08T11:24:00Z,27.4847,-97.3181,0.665,1111122 
TCOON,ioos:station:TCOON:013:1,2019-01-08T12:24:00Z,27.4847,-97.3181,0.663,1111122 
TCOON,ioos:station:TCOON:013:1,2019-01-08T13:24:00Z,27.4847,-97.3181,0.659,1111122 
TCOON,ioos:station:TCOON:013:1,2019-01-08T14:24:00Z,27.4847,-97.3181,0.654,1111122 
TCOON,ioos:station:TCOON:013:1,2019-01-08T15:24:00Z,27.4847,-97.3181,0.645,1111122 
TCOON,ioos:station:TCOON:013:1,2019-01-08T16:24:00Z,27.4847,-97.3181,0.638,1111122 
TCOON,ioos:station:TCOON:013:1,2019-01-08T17:24:00Z,27.4847,-97.3181,0.63,1111122 
TCOON,ioos:station:TCOON:013:1,2019-01-08T18:24:00Z,27.4847,-97.3181,0.628,1111122 
TCOON,ioos:station:TCOON:013:1,2019-01-08T19:24:00Z,27.4847,-97.3181,0.625,1111122 
TCOON,ioos:station:TCOON:013:1,2019-01-08T20:24:00Z,27.4847,-97.3181,0.623,1111122 
TCOON,ioos:station:TCOON:013:1,2019-01-08T21:24:00Z,27.4847,-97.3181,0.621,1111122 
TCOON,ioos:station:TCOON:013:1,2019-01-08T22:24:00Z,27.4847,-97.3181,0.612,1111122 
TCOON,ioos:station:TCOON:013:1,2019-01-08T23:24:00Z,27.4847,-97.3181,0.612,1111122 
TCOON,ioos:station:TCOON:013:1,2019-01-09T00:24:00Z,27.4847,-97.3181,0.613,1111122 
TCOON,ioos:station:TCOON:013:1,2019-01-09T01:24:00Z,27.4847,-97.3181,0.607,1111122 
TCOON,ioos:station:TCOON:013:1,2019-01-09T02:24:00Z,27.4847,-97.3181,0.61,1111122 
TCOON,ioos:station:TCOON:013:1,2019-01-09T03:24:00Z,27.4847,-97.3181,0.609,1111122 
TCOON,ioos:station:TCOON:013:1,2019-01-09T04:24:00Z,27.4847,-97.3181,0.612,1111122 
TCOON,ioos:station:TCOON:013:1,2019-01-09T05:24:00Z,27.4847,-97.3181,0.62,1111122 
TCOON,ioos:station:TCOON:013:1,2019-01-09T06:24:00Z,27.4847,-97.3181,0.631,1111122 
TCOON,ioos:station:TCOON:013:1,2019-01-09T07:24:00Z,27.4847,-97.3181,0.635,1111122 
TCOON,ioos:station:TCOON:013:1,2019-01-09T08:24:00Z,27.4847,-97.3181,0.641,1111122 
TCOON,ioos:station:TCOON:013:1,2019-01-09T09:24:00Z,27.4847,-97.3181,0.643,1111122 
TCOON,ioos:station:TCOON:013:1,2019-01-09T10:24:00Z,27.4847,-97.3181,0.651,1111122 
TCOON,ioos:station:TCOON:013:1,2019-01-09T11:24:00Z,27.4847,-97.3181,0.646,1111122 
TCOON,ioos:station:TCOON:013:1,2019-01-09T12:24:00Z,27.4847,-97.3181,0.642,1111122 
TCOON,ioos:station:TCOON:013:1,2019-01-09T13:24:00Z,27.4847,-97.3181,0.642,1111122 
TCOON,ioos:station:TCOON:013:1,2019-01-09T14:24:00Z,27.4847,-97.3181,0.635,1111122 
TCOON,ioos:station:TCOON:013:1,2019-01-09T16:54:00Z,27.4847,-97.3181,0.63,1111122 
TCOON,ioos:station:TCOON:013:1,2019-01-09T17:24:00Z,27.4847,-97.3181,0.625,1111122 
TCOON,ioos:station:TCOON:013:1,2019-01-09T18:30:00Z,27.4847,-97.3181,0.624,1111122 
TCOON,ioos:station:TCOON:013:1,2019-01-09T19:24:00Z,27.4847,-97.3181,0.612,1111122 
TCOON,ioos:station:TCOON:013:1,2019-01-09T20:24:00Z,27.4847,-97.3181,0.606,1111122 
TCOON,ioos:station:TCOON:013:1,2019-01-09T21:24:00Z,27.4847,-97.3181,0.589,1111122 
TCOON,ioos:station:TCOON:013:1,2019-01-09T22:24:00Z,27.4847,-97.3181,0.583,1111122 
TCOON,ioos:station:TCOON:013:1,2019-01-09T23:24:00Z,27.4847,-97.3181,0.574,1111122 
TCOON,ioos:station:TCOON:013:1,2019-01-10T00:24:00Z,27.4847,-97.3181,0.563,1111122 
TCOON,ioos:station:TCOON:013:1,2019-01-10T01:24:00Z,27.4847,-97.3181,0.555,1111122 
TCOON,ioos:station:TCOON:013:1,2019-01-10T02:24:00Z,27.4847,-97.3181,0.553,1111122 
TCOON,ioos:station:TCOON:013:1,2019-01-10T03:24:00Z,27.4847,-97.3181,0.555,1111122 
TCOON,ioos:station:TCOON:013:1,2019-01-10T04:24:00Z,27.4847,-97.3181,0.564,1111122 
TCOON,ioos:station:TCOON:013:1,2019-01-10T05:24:00Z,27.4847,-97.3181,0.575,1111122 
TCOON,ioos:station:TCOON:013:1,2019-01-10T06:24:00Z,27.4847,-97.3181,0.588,1111122 
TCOON,ioos:station:TCOON:013:1,2019-01-10T07:24:00Z,27.4847,-97.3181,0.599,1111122 
TCOON,ioos:station:TCOON:013:1,2019-01-10T08:24:00Z,27.4847,-97.3181,0.612,1111122 
TCOON,ioos:station:TCOON:013:1,2019-01-10T09:24:00Z,27.4847,-97.3181,0.621,1111122 
TCOON,ioos:station:TCOON:013:1,2019-01-10T10:24:00Z,27.4847,-97.3181,0.636,1111122 
TCOON,ioos:station:TCOON:013:1,2019-01-10T11:24:00Z,27.4847,-97.3181,0.632,1111122 
TCOON,ioos:station:TCOON:013:1,2019-01-10T12:24:00Z,27.4847,-97.3181,0.634,1111122 
TCOON,ioos:station:TCOON:013:1,2019-01-10T13:24:00Z,27.4847,-97.3181,0.637,1111122 
TCOON,ioos:station:TCOON:013:1,2019-01-10T14:24:00Z,27.4847,-97.3181,0.643,1111122 
TCOON,ioos:station:TCOON:013:1,2019-01-10T15:24:00Z,27.4847,-97.3181,0.644,1111122 
TCOON,ioos:station:TCOON:013:1,2019-01-10T16:24:00Z,27.4847,-97.3181,0.647,1111122 
TCOON,ioos:station:TCOON:013:1,2019-01-10T17:24:00Z,27.4847,-97.3181,0.649,1111122 
TCOON,ioos:station:TCOON:013:1,2019-01-10T18:24:00Z,27.4847,-97.3181,0.648,1111122 
TCOON,ioos:station:TCOON:013:1,2019-01-10T19:24:00Z,27.4847,-97.3181,0.646,1111122 
TCOON,ioos:station:TCOON:013:1,2019-01-10T20:24:00Z,27.4847,-97.3181,0.643,1111122 
TCOON,ioos:station:TCOON:013:1,2019-01-10T21:24:00Z,27.4847,-97.3181,0.634,1111122 
TCOON,ioos:station:TCOON:013:1,2019-01-10T22:24:00Z,27.4847,-97.3181,0.627,1111122 
TCOON,ioos:station:TCOON:013:1,2019-01-10T23:24:00Z,27.4847,-97.3181,0.625,1111122 
TCOON,ioos:station:TCOON:013:1,2019-01-11T00:24:00Z,27.4847,-97.3181,0.625,1111122 
TCOON,ioos:station:TCOON:013:1,2019-01-11T01:24:00Z,27.4847,-97.3181,0.623,1111122 
TCOON,ioos:station:TCOON:013:1,2019-01-11T02:24:00Z,27.4847,-97.3181,0.621,1111122 
TCOON,ioos:station:TCOON:013:1,2019-01-11T03:24:00Z,27.4847,-97.3181,0.631,1111122 
TCOON,ioos:station:TCOON:013:1,2019-01-11T04:24:00Z,27.4847,-97.3181,0.64,1111122 
TCOON,ioos:station:TCOON:013:1,2019-01-11T05:24:00Z,27.4847,-97.3181,0.648,1111122 
TCOON,ioos:station:TCOON:013:1,2019-01-11T06:24:00Z,27.4847,-97.3181,0.664,1111122 
TCOON,ioos:station:TCOON:013:1,2019-01-11T07:24:00Z,27.4847,-97.3181,0.671,1111122 
TCOON,ioos:station:TCOON:013:1,2019-01-11T08:24:00Z,27.4847,-97.3181,0.673,1111122 
TCOON,ioos:station:TCOON:013:1,2019-01-11T09:24:00Z,27.4847,-97.3181,0.683,1111122 
TCOON,ioos:station:TCOON:013:1,2019-01-11T10:24:00Z,27.4847,-97.3181,0.689,1111122 
TCOON,ioos:station:TCOON:013:1,2019-01-11T11:24:00Z,27.4847,-97.3181,0.694,1111122 
TCOON,ioos:station:TCOON:013:1,2019-01-11T12:24:00Z,27.4847,-97.3181,0.699,1111122 
TCOON,ioos:station:TCOON:013:1,2019-01-11T13:24:00Z,27.4847,-97.3181,0.698,1111122 
TCOON,ioos:station:TCOON:013:1,2019-01-11T14:24:00Z,27.4847,-97.3181,0.703,1111122 
TCOON,ioos:station:TCOON:013:1,2019-01-11T15:24:00Z,27.4847,-97.3181,0.715,1111122 
TCOON,ioos:station:TCOON:013:1,2019-01-11T16:24:00Z,27.4847,-97.3181,0.709,1111122 
TCOON,ioos:station:TCOON:013:1,2019-01-11T17:24:00Z,27.4847,-97.3181,0.713,1111122 
TCOON,ioos:station:TCOON:013:1,2019-01-11T18:24:00Z,27.4847,-97.3181,0.715,1111122 
TCOON,ioos:station:TCOON:013:1,2019-01-11T19:24:00Z,27.4847,-97.3181,0.715,1111122 
TCOON,ioos:station:TCOON:013:1,2019-01-11T20:24:00Z,27.4847,-97.3181,0.712,1111122 
TCOON,ioos:station:TCOON:013:1,2019-01-11T21:24:00Z,27.4847,-97.3181,0.709,1111122 
TCOON,ioos:station:TCOON:013:1,2019-01-11T22:24:00Z,27.4847,-97.3181,0.707,1111122 
TCOON,ioos:station:TCOON:013:1,2019-01-11T23:24:00Z,27.4847,-97.3181,0.704,1111122 
TCOON,ioos:station:TCOON:013:1,2019-01-12T00:24:00Z,27.4847,-97.3181,0.694,1111122 
TCOON,ioos:station:TCOON:013:1,2019-01-12T01:24:00Z,27.4847,-97.3181,0.703,1111122 
TCOON,ioos:station:TCOON:013:1,2019-01-12T02:24:00Z,27.4847,-97.3181,0.7,1111122 
TCOON,ioos:station:TCOON:013:1,2019-01-12T03:24:00Z,27.4847,-97.3181,0.717,1111122 
TCOON,ioos:station:TCOON:013:1,2019-01-12T04:24:00Z,27.4847,-97.3181,0.708,1111122 
TCOON,ioos:station:TCOON:013:1,2019-01-12T05:24:00Z,27.4847,-97.3181,0.726,1111122 
TCOON,ioos:station:TCOON:013:1,2019-01-12T06:24:00Z,27.4847,-97.3181,0.739,1111122 
TCOON,ioos:station:TCOON:013:1,2019-01-12T07:24:00Z,27.4847,-97.3181,0.752,1111122 
TCOON,ioos:station:TCOON:013:1,2019-01-12T08:24:00Z,27.4847,-97.3181,0.754,1111122 
TCOON,ioos:station:TCOON:013:1,2019-01-12T09:24:00Z,27.4847,-97.3181,0.764,1111122 
TCOON,ioos:station:TCOON:013:1,2019-01-12T10:24:00Z,27.4847,-97.3181,0.766,1111122 
TCOON,ioos:station:TCOON:013:1,2019-01-12T11:24:00Z,27.4847,-97.3181,0.766,1111122 
TCOON,ioos:station:TCOON:013:1,2019-01-12T12:24:00Z,27.4847,-97.3181,0.765,1111122 
TCOON,ioos:station:TCOON:013:1,2019-01-12T13:24:00Z,27.4847,-97.3181,0.766,1111122 
TCOON,ioos:station:TCOON:013:1,2019-01-12T14:24:00Z,27.4847,-97.3181,0.765,1111122 
TCOON,ioos:station:TCOON:013:1,2019-01-12T15:24:00Z,27.4847,-97.3181,0.764,1111122 
TCOON,ioos:station:TCOON:013:1,2019-01-12T16:24:00Z,27.4847,-97.3181,0.763,1111122 
TCOON,ioos:station:TCOON:013:1,2019-01-12T17:24:00Z,27.4847,-97.3181,0.762,1111122 
TCOON,ioos:station:TCOON:013:1,2019-01-12T18:24:00Z,27.4847,-97.3181,0.754,1111122 
TCOON,ioos:station:TCOON:013:1,2019-01-12T19:24:00Z,27.4847,-97.3181,0.753,1111122 
TCOON,ioos:station:TCOON:013:1,2019-01-12T20:24:00Z,27.4847,-97.3181,0.751,1111122 
TCOON,ioos:station:TCOON:013:1,2019-01-12T21:24:00Z,27.4847,-97.3181,0.742,1111122 
TCOON,ioos:station:TCOON:013:1,2019-01-12T22:24:00Z,27.4847,-97.3181,0.733,1111122 
TCOON,ioos:station:TCOON:013:1,2019-01-12T23:24:00Z,27.4847,-97.3181,0.734,1111122 
TCOON,ioos:station:TCOON:013:1,2019-01-13T00:24:00Z,27.4847,-97.3181,0.713,1111122 